Weather Roundup
Issued by NWS

Home | Current Version | Previous Version | Text Only | Print | Product List | Glossary On
Versions: 1 2 3 4 5 6 7 8 9 10 11 12 13 14 15 16 17 18 19 20 21 22 23 24 25 26 27 28 29 30 31 32 33 34 35 36 37 38 39 40 41 42 43 44 45 46 47 48 49 50
897
NZUS93 KARX 300510
HRRWXR

CURRENT HOURLY OBSERVATIONS ACROSS
MUCH OF THE UPPER MISSISSIPPI VALLEY
NATIONAL WEATHER SERVICE LA CROSSE WI
1200 AM CDT THU MAR 30 2017


...SOUTHEAST MINNESOTA...


CITY           SKY/WX    TMP DP  RH WIND       PRES   REMARKS
ROCHESTER      LGT RAIN  39  35  86 E20G33    30.00F WCI  29
ROCHESTER/MAYO CLOUDY    39  39 100 E9G18     30.02F WCI  33
WINONA         RAIN      37  36  93 E9        30.06F WCI  31
AUSTIN         CLOUDY    39  36  87 E22G28    29.99F WCI  29
ALBERT LEA     LGT RAIN  37  37 100 E22G29    29.98F WCI  27
DODGE CENTER   CLOUDY    37  37 100 E14       30.01F WCI  29
PRESTON        CLOUDY    37  34  87 E20G25    30.01F WCI  27
OWATONNA       CLOUDY    39  36  87 E18G26    30.02F WCI  30
FARIBAULT      DRIZZLE   39  37  93 E8        30.05S WCI  34
$$

...ELSEWHERE IN MINNESOTA...


CITY           SKY/WX    TMP DP  RH WIND       PRES   REMARKS
MINNEAPOLIS    CLOUDY    42  36  79 E10       30.08F
INTNL FALLS    CLEAR     36  27  69 SE7       30.08F WCI  30
DULUTH         PTCLDY    31  28  89 E10       30.13F WCI  22
RED WING       LGT RAIN  41  36  81 E9        30.06F
REDWOOD FALLS  CLOUDY    41  37  86 E7        30.04F
MANKATO        LGT RAIN  40  37  89 E12       30.03F WCI  33
WORTHINGTON    CLOUDY    37  36  96 NE15      29.96F WCI  28
FAIRMONT       LGT RAIN  39  37  92 E12       29.98F WCI  32
$$

...SOUTHWEST WISCONSIN...


CITY           SKY/WX    TMP DP  RH WIND       PRES   REMARKS
LA CROSSE      CLOUDY    42  35  76 E12G21    30.06F
PRAIRIE DU CHI CLOUDY    39  38  97 E12G23    29.99F WCI  31
BOSCOBEL       CLOUDY    40  32  73 E12G21    30.02F WCI  33
LONE ROCK      CLOUDY    39  36  89 E16       30.03F FOG     WCI  30
PLATTEVILLE    CLOUDY    40  39  99 E20G31    29.96F WCI  30
FORT MC COY    LGT RAIN  37  35  92 E12G17    30.07F WCI  29
CAMP DOUGLAS   CLOUDY    37  33  88 E14       30.08F WCI  28
MAUSTON-NEW LI CLOUDY    37  32  81 E7        30.08F WCI  32
VIROQUA        CLOUDY    37  34  89 E18       30.02F WCI  27
WIS DELLS      CLOUDY    36  30  78 E14G22    30.06F WCI  27
$$

...ELSEWHERE IN WISCONSIN...


CITY           SKY/WX    TMP DP  RH WIND       PRES   REMARKS
MILWAUKEE      CLOUDY    40  36  86 NE14      30.09F WCI  32
MADISON        LGT RAIN  38  36  92 NE13      30.06F FOG     WCI  30
GREEN BAY      LGT RAIN  36  34  92 NE10      30.16F WCI  28
EAU CLAIRE     CLOUDY    40  37  89 E9        30.09F WCI  34
BLACK RVR FLS  LGT RAIN  35  35 100 E10       30.09F WCI  27
MEDFORD        CLOUDY    34  31  87 E6        30.12F WCI  29
WAUSAU         CLOUDY    35  27  72 E10       30.12F WCI  27
WIS RAPIDS     LGT SNOW  34  34 100 E12       30.12F FOG     WCI  25
MARSHFIELD     MIX PCPN  35  32  88 E10       30.10F WCI  27
RICE LAKE      CLOUDY    41  34  75 CALM      30.13F
$$

...NORTHEAST IOWA...


CITY           SKY/WX    TMP DP  RH WIND       PRES   REMARKS
WATERLOO       RAIN      40  38  93 E15G24    29.95S FOG     WCI  32
DUBUQUE        CLOUDY    39  37  92 E24G32    29.94F FOG     WCI  28
DECORAH        CLOUDY    37  37 100 E15G24    29.98F FOG     WCI  28
MASON CITY     LGT RAIN  38  36  92 E18G28    29.97F FOG     WCI  28
CHARLES CITY   CLOUDY    39  39 100 E17G25    29.97S FOG     WCI  30
OELWEIN        CLOUDY    39  39 100 E20G26    29.95R FOG     WCI  30
$$

...ELSEWHERE IN IOWA...


CITY           SKY/WX    TMP DP  RH WIND       PRES   REMARKS
DES MOINES     CLOUDY    44  41  89 E15G26    29.80F
IOWA CITY      CLOUDY    44  40  85 E18G24    29.88S
FORT DODGE     CLOUDY    37  36  93 E25G32    29.88S WCI  26
MARSHALLTOWN   CLOUDY    40  39  97 E25       29.85F WCI  29
CEDAR RAPIDS   LGT RAIN  41  41 100 E23       29.86F
$$

...NORTHERN ILLINOIS...


CITY           SKY/WX    TMP DP  RH WIND       PRES   REMARKS
CHICAGO-OHARE  LGT RAIN  45  38  76 E17G25    30.00F
CHICAGO-MIDWAY LGT RAIN  45  40  82 E20G26    30.01F FOG
MOLINE         RAIN      43  39  86 E23G33    29.84F
ROCKFORD       LGT RAIN  43  38  82 NE22G29   29.99F
PEORIA         LGT RAIN  48  46  93 E21       29.82F FOG
$$

NOTE: "FAIR" INDICATES FEW OR NO CLOUDS BELOW 12,000 FEET WITH NO
SIGNIFICANT WEATHER AND/OR OBSTRUCTIONS TO VISIBILITY. WIND
SPEEDS ARE IN MILES-PER-HOUR.




USA.gov is the U.S. government's official web portal to all federal, state and local government web resources and services.